Location: Lake Almanor
(40.2485°N, 121.1442°W)
Time: 03:22:24
(UTC-08:00)

N. Korean satellite - Pass Details

Date: 01 February 2020
Orbit: 456 x 505 km, 97.2° (Epoch: 25 February)

Event Time Altitude Azimuth Distance (km) Brightness Sun altitude
Rises 05:43:42 0° 14° (NNE) 2,568 10.3 -17.4°
Reaches altitude 10° 05:45:47 10° 17° (NNE) 1,690 9.4 -17.0°
Maximum altitude 05:49:25 69° 101° (E) 536 6.9 -16.4°
Drops below altitude 10° 05:53:03 10° 185° (S) 1,699 9.4 -15.7°
Sets 05:55:09 0° 188° (S) 2,582 10.3 -15.3°
